Preview of NWS' New Version of Forecast
This preview is not operational and should not be used for support decisions.

Regional Weather Roundup (RWR)

Issued by National Weather Service (NWS)

                            
000
ASUS43 KBIS 211902
RWRND 

NORTH DAKOTA REGIONAL WEATHER ROUNDUP
NATIONAL WEATHER SERVICE BISMARCK ND
200 PM CDT SAT SEP 21 2019

NOTE: "FAIR" INDICATES FEW OR NO CLOUDS BELOW 12,000 FEET WITH NO
SIGNIFICANT WEATHER AND/OR OBSTRUCTIONS TO VISIBILITY.


NDZ001>003-009>011-017-212000-
NORTHWEST NORTH DAKOTA
  
CITY           SKY/WX    TMP DP  RH WIND       PRES   REMARKS
WILLISTON      CLOUDY    57  50  77 NW18G25   29.81R                  
MINOT          HVY RAIN  54  51  90 W8        29.75F FOG              
$$
 
NDZ018>021-031>035-040>046-212000-
SOUTHWEST NORTH DAKOTA
  
CITY           SKY/WX    TMP DP  RH WIND       PRES   REMARKS
BISMARCK       CLOUDY    63  56  78 NW14      29.72R                  
DICKINSON      CLOUDY    59  49  69 NW16G28   29.77S                  
GARRISON         N/A     53  51  93 NE13G23   29.67F                  
HETTINGER ARPT CLOUDY    62  51  67 W21G31    29.82S                  
$$
 
NDZ004>008-012>016-024-026-027-054-212000-
NORTHEAST NORTH DAKOTA
  
CITY           SKY/WX    TMP DP  RH WIND       PRES   REMARKS
GRAND FORKS    CLOUDY    68  61  78 S3        29.61S                  
DEVILS LAKE    CLOUDY    64  59  83 W18       29.64R                  
$$
 
NDZ022-023-025-028>030-036>039-047>053-212000-
SOUTHEAST NORTH DAKOTA
  
CITY           SKY/WX    TMP DP  RH WIND       PRES   REMARKS
FARGO          CLOUDY    76  63  64 SW15      29.62S                  
JAMESTOWN      CLOUDY    70  63  78 W16       29.64R                  
$$